Weather in Wad Madani

Sudan     14°23′32″N   33°31′35″E
temp.,
°C
wind,
m/s
gust,
m/s
humid.,
%
clouds,
%
prec.,
mm/h
press.,
hPa
HPBL,
m
7 may, fri
fri723:00+35s4624100 0.0 1005155
02:00+34ssw352799 0.0 1005134
05:00+34sse352697 0.0 1007122
08:00+35sw883276 0.0 10091037
11:00+38ssw742821 0.0 10092827
14:00+36wsw4527100 0.3 10062211
17:00+30s894592 1.3 1006326
20:00+31s8945100 1.3 1007400
8 may, sat
sat823:00+28ese7957100 0.0 1010500
02:00+28s5854100 0.0 1008367
05:00+28ssw2252100 0.1 1011175
08:00+31s673988 0.1 1011705
11:00+35sse43295 0.0 10101941
14:00+37se252385 0.0 10073714
17:00+37ese3324100 0.0 10062741
20:00+35ssw343075 0.0 1008320
9 may, sun
sun923:00+33s463678 0.0 1008511
02:00+31ssw684678 0.0 1007540
05:00+29ssw6952100 0.0 1009594
08:00+31ssw774735 0.0 1011911
11:00+35sw7735100 0.0 10101718
14:00+38sw752778 0.0 10074002
17:00+33nnw4537100 0.3 1007916
20:00+30s684195 4.1 1009341
10 may, mon
mon1023:00+31sw684525 0.0 1008388
02:00+29sse695159 0.0 1008567
05:00+28s475486 0.0 1010570
08:00+30ssw674376 0.0 1011819
11:00+35ssw65325 0.0 10101757
14:00+38sw53265 0.0 10072967
17:00+37sw632594 0.0 10062778
20:00+35sw653096 0.2 1007938
11 may, tue
tue1123:00+31sse8114448 0.0 1009631
02:00+29ssw7104713 0.0 1008548
05:00+29ssw7114999 0.0 1009515
08:00+29s784689 0.0 1012813
11:00+34s87345 0.0 10121710
14:00+37ssw65305 0.0 10082446
17:00+36wsw64285 0.0 10072741
20:00+34sw67343 0.0 1008471